Wind_Speed
10 12 12 11 11 10 11 12 13 14 14 16 16 17 18 18 19 18 19 20 21 20 21 20 18 19 19 20 20 21 21 21 22 23 24 24 25 25 25 26 26 27 27 27
9 10 10 10 9 9 10 11 11 12 13 15 16 17 19 20 20 20 20 20 22 22 22 22 19 19 20 21 19 20 20 21 22 24 25 24 25 25 26 27 27 28 28 28
8 7 7 8 9 8 8 9 11 12 13 15 16 17 17 19 20 20 20 20 20 22 23 21 22 22 21 21 20 19 19 20 22 23 23 23 25 26 26 27 27 28 28 28
6 7 6 6 7 7 8 9 11 12 14 14 16 17 17 19 20 21 21 22 21 22 23 23 21 19 18 19 19 20 20 20 21 22 23 24 25 25 26 26 27 27 28 28
3 4 5 5 5 6 7 10 12 14 15 15 15 18 17 19 19 20 21 22 22 22 21 19 18 19 19 19 19 21 21 21 22 22 23 25 25 26 26 27 26 26 27 27
3 4 5 6 6 7 8 10 12 13 14 15 15 17 17 16 17 18 18 19 20 20 19 18 17 17 18 18 20 21 21 21 22 23 24 25 25 26 26 26 26 26 27 26
4 5 6 8 8 9 11 12 13 13 14 14 15 17 16 17 16 15 15 15 16 17 17 17 17 18 17 18 19 20 21 21 22 23 24 25 25 25 26 26 26 26 26 26
6 6 8 9 10 11 12 13 14 15 15 16 16 17 17 17 16 16 16 15 15 15 16 17 17 17 18 19 20 20 21 22 23 24 24 25 25 25 25 25 26 25 25 24
9 9 9 11 11 12 12 14 15 16 17 17 18 18 18 17 16 17 17 17 16 16 16 16 16 17 18 18 19 20 21 21 22 23 24 25 24 24 24 24 25 24 24 23
11 11 10 11 11 13 14 16 17 18 18 18 17 18 18 18 17 16 17 15 15 15 16 17 17 18 18 18 18 20 20 21 22 24 24 24 23 23 23 24 24 23 23 23
13 12 11 12 13 14 15 16 18 19 19 19 19 18 17 17 16 17 16 14 15 15 15 17 18 19 18 19 19 20 20 22 23 24 24 23 23 23 23 23 23 23 22 22
14 14 13 13 12 13 14 15 17 18 18 18 20 19 18 17 16 16 16 15 15 16 16 17 18 19 18 19 20 20 20 21 22 23 23 22 22 22 22 22 22 22 22 21
15 16 15 14 14 14 15 16 18 18 18 19 20 20 18 18 17 17 17 17 16 16 15 16 17 17 17 19 19 19 20 21 21 22 22 20 21 21 21 21 21 21 21 21
17 17 16 15 14 15 16 16 17 18 18 18 18 19 18 18 18 18 19 19 18 17 17 16 17 16 17 18 19 20 20 21 21 21 20 19 20 20 20 20 21 21 20 20
17 17 16 15 15 16 17 17 17 18 18 17 17 18 18 18 18 18 19 20 19 18 16 16 16 16 17 17 19 20 19 20 21 20 19 19 19 19 19 19 19 19 18 18
18 18 17 16 15 16 17 17 18 18 17 17 17 18 18 18 18 19 19 19 18 16 16 16 16 16 16 17 18 18 19 20 20 19 18 18 18 17 17 17 17 16 15 16
19 20 19 18 18 18 17 16 17 17 16 17 18 18 18 17 18 18 19 20 18 16 16 16 16 15 15 16 17 17 18 19 18 17 17 16 16 15 15 15 15 14 14 15
20 20 20 20 20 21 17 16 17 17 17 17 18 18 18 17 18 18 18 18 17 15 15 15 14 14 14 15 16 17 17 16 16 15 16 16 15 14 14 14 15 14 14 15
21 21 21 22 22 21 17 17 17 18 17 17 17 17 18 18 18 17 17 16 16 15 13 13 13 13 15 15 15 15 14 14 14 14 14 14 13 13 14 14 14 14 14 14
21 21 21 22 22 22 19 18 18 17 16 15 16 16 17 17 17 16 15 14 13 12 11 11 12 13 13 13 13 13 13 13 14 13 14 13 13 13 13 14 14 13 14 14
21 22 22 23 23 22 20 19 18 18 16 16 16 16 17 17 16 14 13 13 12 12 11 11 12 12 11 11 12 12 12 12 13 12 12 12 12 12 13 13 13 13 13 14
23 23 23 23 23 21 19 18 17 16 15 15 16 15 15 15 14 13 12 12 12 12 11 11 12 11 10 10 11 11 11 11 11 10 10 11 11 12 12 12 13 13 13 13
24 23 23 23 22 21 19 18 17 16 16 16 16 15 15 14 13 12 12 12 11 10 10 10 11 10 9 9 10 10 10 10 9 9 10 10 11 11 12 12 13 13 13 13
23 22 23 22 21 19 17 17 16 16 17 16 15 14 13 12 11 10 9 9 9 8 7 8 9 8 8 8 8 8 9 9 9 9 9 9 10 11 11 12 13 13 13 14
22 22 21 22 19 18 17 17 17 17 15 14 14 12 11 10 9 8 7 7 6 6 7 7 7 7 7 7 7 8 8 8 8 8 8 8 10 11 11 12 13 14 14 15
21 21 20 19 17 18 17 17 17 17 15 13 13 11 10 8 6 6 7 7 6 6 6 7 7 6 6 6 7 7 7 7 7 7 8 8 9 10 11 12 13 14 15 15
Wind_Direction
173 185 197 203 207 215 225 229 236 244 254 259 264 267 272 274 279 282 284 287 287 291 288 287 291 290 293 291 292 296 296 296 298 299 300 301 300 300 301 300 299 299 299 298
177 180 192 202 212 226 236 240 242 245 252 263 265 268 272 278 275 279 285 289 291 294 292 292 296 300 298 296 294 296 297 295 297 297 298 299 300 301 301 300 299 299 299 299
180 180 194 212 223 236 241 247 244 244 254 261 264 266 270 273 271 280 284 286 289 291 288 291 301 304 301 297 299 298 295 297 300 301 300 298 301 302 302 303 301 300 299 299
189 193 209 221 229 245 247 249 256 257 261 264 268 268 270 278 278 277 283 285 287 288 290 294 299 302 301 299 299 300 296 300 303 303 303 302 302 302 302 303 302 301 299 297
199 203 213 228 237 252 258 257 262 260 262 265 270 273 276 279 280 283 283 286 288 291 294 296 298 302 300 297 299 299 301 303 304 303 303 302 302 302 302 302 301 302 301 298
245 234 233 241 247 256 264 266 265 264 264 265 271 276 282 288 289 290 291 290 292 294 295 296 297 298 299 296 298 302 302 303 304 304 303 304 303 303 303 304 303 303 302 300
266 253 254 259 261 262 266 269 269 266 267 271 275 283 291 293 297 293 294 293 292 290 290 291 290 295 298 300 300 301 302 304 304 304 305 305 306 305 305 305 306 305 304 303
272 266 270 270 271 272 269 270 275 278 278 278 278 286 294 296 296 293 294 294 295 295 294 293 298 301 303 300 300 300 301 303 304 306 306 306 306 307 308 307 307 308 308 309
284 276 273 273 272 270 270 270 276 280 281 283 283 286 289 294 295 294 295 294 294 294 296 299 300 301 301 302 302 302 303 304 306 307 306 307 307 307 308 308 309 310 310 310
288 283 275 272 269 271 271 272 273 274 281 283 284 287 292 293 291 296 298 295 292 295 297 298 300 303 300 301 301 302 304 304 307 308 306 307 307 309 309 309 310 310 309 310
285 282 276 274 273 269 268 273 275 275 280 283 287 292 295 296 296 296 295 292 292 294 296 297 298 300 299 299 300 301 302 304 306 307 306 305 307 309 310 310 310 308 308 308
286 285 282 276 273 270 272 275 278 279 280 283 289 296 298 302 305 304 298 294 295 294 294 297 298 298 296 298 300 301 302 304 306 309 308 307 309 310 311 311 310 309 309 309
288 285 284 281 276 274 273 275 280 280 279 283 289 295 299 298 302 303 301 298 295 297 296 298 299 296 296 299 300 300 303 306 308 310 309 309 311 312 311 311 311 310 310 311
288 287 285 283 279 278 277 274 275 278 280 282 287 293 295 298 301 300 299 300 298 300 300 299 301 298 299 301 301 300 302 306 309 310 309 310 313 315 314 313 313 312 312 312
287 287 286 284 279 278 281 280 276 277 278 282 288 292 295 297 298 296 297 299 297 297 300 301 301 300 302 303 304 303 306 308 310 311 311 312 315 317 317 318 319 317 317 316
285 286 285 284 278 278 280 282 279 277 279 281 285 289 293 295 295 294 296 297 294 295 299 301 301 302 302 304 306 307 309 311 311 312 313 313 315 318 320 322 325 325 325 325
282 283 284 284 283 283 284 285 282 280 281 281 283 289 295 293 292 295 298 301 298 299 300 299 299 301 302 304 307 309 310 311 312 313 317 318 318 319 320 322 328 330 330 332
283 283 282 284 283 281 287 284 284 281 281 281 283 286 289 292 294 297 298 300 297 292 293 294 298 304 308 309 309 311 312 311 312 316 320 321 318 316 319 320 325 328 331 333
280 281 280 282 284 285 285 282 283 282 280 283 284 285 289 290 293 298 299 299 296 289 292 295 298 304 310 311 313 316 317 318 319 320 324 326 324 320 320 322 324 326 328 331
279 279 279 281 282 287 290 284 283 283 280 281 283 285 287 289 290 295 297 297 296 290 295 303 305 308 311 314 317 321 323 324 324 322 328 328 329 326 325 327 329 328 330 332
278 276 277 278 279 283 286 283 283 281 279 279 280 284 285 284 288 291 296 297 296 296 298 303 309 313 316 320 322 325 329 329 328 328 331 335 336 335 335 337 338 336 334 334
281 278 276 276 274 277 279 277 277 279 278 277 279 283 285 284 286 287 290 291 293 296 300 306 311 316 321 323 325 329 336 336 338 340 338 341 344 345 346 346 348 345 341 340
281 282 280 277 275 277 273 270 270 273 271 272 278 283 283 283 281 282 285 287 285 292 300 306 314 316 321 324 329 333 340 343 347 346 343 346 354 357 357 356 355 355 352 348
281 280 278 278 277 274 272 265 262 262 263 263 270 278 280 281 283 283 281 283 282 293 304 307 314 317 321 326 335 342 344 347 353 355 357 -0 1 359 359 1 1 358 356 353
280 281 279 279 278 271 268 264 261 259 259 261 266 268 275 281 276 278 273 275 281 298 304 309 317 320 321 325 332 343 347 350 355 358 1 1 360 1 0 359 359 358 355 352
275 276 276 278 276 270 267 260 257 258 257 257 258 260 263 265 265 268 269 267 278 294 301 308 314 317 320 322 325 339 348 351 356 1 6 5 2 3 2 359 358 358 358 355
Height
5855 5857 5858 5860 5862 5863 5864 5865 5866 5866 5866 5866 5866 5866 5866 5866 5865 5864 5865 5864 5863 5862 5861 5859 5857 5855 5855 5853 5852 5851 5849 5848 5846 5844 5842 5839 5837 5834 5831 5828 5825 5822 5819 5816
5855 5856 5858 5859 5860 5861 5862 5862 5863 5863 5862 5862 5862 5862 5862 5862 5861 5861 5860 5860 5858 5858 5855 5854 5853 5853 5851 5849 5847 5846 5844 5843 5841 5839 5836 5834 5831 5829 5825 5822 5819 5815 5812 5809
5854 5856 5856 5857 5858 5859 5860 5860 5860 5860 5860 5859 5859 5860 5860 5859 5857 5856 5856 5856 5855 5854 5851 5848 5849 5848 5847 5845 5843 5842 5840 5838 5836 5833 5830 5828 5825 5823 5819 5816 5812 5809 5805 5802
5853 5854 5855 5855 5856 5856 5857 5857 5857 5857 5857 5857 5857 5856 5856 5856 5854 5854 5853 5852 5851 5849 5847 5845 5845 5843 5842 5840 5838 5837 5835 5833 5831 5828 5825 5822 5820 5816 5813 5810 5806 5802 5799 5796
5852 5853 5853 5854 5854 5854 5854 5854 5854 5853 5853 5853 5853 5853 5853 5852 5851 5851 5849 5848 5846 5844 5843 5841 5840 5839 5837 5835 5834 5832 5830 5828 5825 5823 5820 5817 5813 5810 5807 5803 5799 5795 5791 5788
5851 5851 5851 5851 5851 5852 5851 5851 5851 5850 5850 5850 5850 5849 5849 5848 5847 5846 5844 5843 5842 5840 5839 5838 5836 5834 5832 5830 5829 5827 5825 5823 5820 5817 5815 5811 5807 5803 5800 5797 5793 5789 5785 5782
5850 5850 5849 5849 5848 5849 5849 5849 5848 5847 5847 5847 5846 5845 5846 5844 5843 5841 5840 5838 5836 5835 5835 5833 5831 5830 5828 5826 5824 5822 5820 5817 5815 5812 5809 5805 5801 5798 5794 5791 5787 5783 5779 5775
5847 5848 5847 5847 5846 5845 5845 5845 5845 5844 5843 5843 5842 5841 5842 5840 5838 5836 5835 5834 5832 5831 5830 5829 5827 5826 5823 5822 5820 5818 5815 5813 5810 5807 5803 5800 5796 5792 5789 5785 5781 5777 5773 5769
5844 5845 5844 5844 5843 5843 5842 5842 5841 5840 5839 5838 5838 5837 5837 5835 5834 5832 5831 5829 5828 5827 5826 5824 5823 5821 5819 5817 5816 5814 5811 5808 5805 5802 5799 5795 5791 5787 5783 5780 5776 5772 5768 5764
5841 5841 5842 5841 5841 5840 5839 5838 5838 5836 5834 5833 5833 5833 5832 5831 5830 5829 5826 5824 5823 5822 5821 5820 5818 5816 5815 5813 5811 5809 5806 5803 5800 5797 5794 5790 5786 5782 5778 5774 5770 5766 5763 5759
5838 5838 5838 5837 5836 5836 5836 5835 5833 5832 5831 5829 5827 5830 5828 5826 5825 5824 5822 5821 5819 5818 5817 5815 5814 5812 5810 5808 5806 5804 5801 5798 5795 5792 5788 5785 5781 5777 5773 5769 5765 5761 5758 5754
5835 5834 5833 5833 5833 5832 5831 5830 5829 5828 5826 5825 5823 5826 5823 5822 5820 5819 5818 5816 5815 5813 5812 5810 5809 5807 5805 5803 5801 5799 5796 5794 5790 5787 5783 5779 5776 5772 5768 5764 5760 5756 5752 5749
5830 5830 5829 5829 5830 5829 5827 5826 5824 5823 5822 5820 5819 5821 5818 5817 5816 5815 5814 5812 5810 5809 5807 5806 5804 5802 5800 5799 5797 5794 5792 5789 5786 5782 5778 5774 5770 5766 5763 5759 5755 5751 5747 5744
5826 5825 5825 5824 5823 5822 5822 5821 5820 5818 5817 5816 5815 5815 5814 5812 5811 5811 5809 5807 5806 5804 5803 5801 5800 5798 5796 5794 5792 5789 5787 5784 5780 5777 5773 5769 5766 5762 5758 5754 5751 5747 5743 5739
5821 5820 5819 5818 5818 5817 5816 5816 5815 5813 5812 5811 5811 5810 5809 5808 5807 5806 5804 5802 5800 5799 5797 5796 5795 5793 5791 5789 5786 5784 5781 5778 5775 5772 5768 5765 5761 5758 5754 5750 5747 5743 5739 5735
5816 5815 5814 5814 5813 5812 5811 5811 5809 5808 5807 5806 5806 5805 5804 5803 5802 5801 5799 5797 5795 5793 5792 5791 5789 5787 5786 5784 5781 5778 5776 5773 5770 5767 5764 5761 5757 5754 5750 5747 5743 5739 5736 5732
5811 5810 5809 5808 5808 5807 5807 5806 5804 5803 5802 5802 5801 5801 5799 5798 5797 5796 5794 5793 5790 5788 5787 5787 5785 5783 5781 5779 5777 5774 5771 5769 5766 5763 5759 5756 5753 5750 5747 5744 5740 5737 5733 5730
5806 5804 5803 5802 5802 5801 5805 5801 5799 5798 5797 5796 5796 5795 5794 5793 5792 5791 5789 5788 5786 5784 5783 5782 5780 5779 5777 5775 5772 5769 5767 5764 5761 5759 5756 5753 5750 5747 5744 5741 5738 5735 5731 5728
5800 5799 5797 5796 5795 5795 5797 5795 5793 5792 5792 5791 5791 5790 5789 5788 5787 5786 5785 5783 5781 5780 5779 5778 5776 5775 5773 5771 5768 5765 5763 5760 5758 5755 5752 5749 5746 5744 5741 5738 5735 5732 5729 5726
5794 5792 5792 5790 5789 5788 5792 5790 5788 5788 5787 5787 5785 5785 5784 5783 5782 5782 5780 5778 5777 5776 5775 5774 5773 5771 5769 5767 5764 5762 5760 5757 5755 5752 5749 5745 5743 5741 5738 5735 5733 5730 5727 5724
5788 5786 5785 5784 5782 5783 5784 5784 5783 5783 5783 5781 5780 5779 5779 5778 5777 5777 5775 5774 5773 5772 5771 5770 5769 5768 5766 5764 5762 5759 5756 5754 5751 5748 5746 5744 5741 5739 5736 5733 5730 5728 5725 5722
5779 5779 5778 5777 5776 5780 5778 5777 5777 5777 5775 5775 5774 5773 5773 5772 5772 5772 5771 5770 5769 5769 5768 5767 5766 5764 5763 5761 5759 5757 5754 5751 5748 5746 5745 5742 5740 5737 5735 5732 5729 5726 5723 5720
5772 5772 5770 5770 5772 5772 5770 5770 5770 5770 5769 5769 5768 5768 5767 5767 5767 5767 5767 5766 5766 5766 5765 5764 5763 5761 5760 5759 5757 5754 5752 5749 5747 5745 5743 5741 5738 5736 5734 5731 5728 5725 5722 5719
5765 5764 5763 5762 5763 5763 5763 5762 5763 5763 5762 5762 5763 5763 5762 5762 5762 5762 5762 5762 5763 5762 5762 5761 5760 5759 5758 5756 5755 5753 5751 5748 5746 5744 5742 5740 5738 5736 5733 5731 5728 5725 5722 5719
5757 5756 5755 5755 5756 5756 5756 5756 5756 5756 5757 5757 5757 5757 5758 5758 5758 5759 5760 5760 5760 5760 5759 5759 5758 5757 5756 5755 5753 5752 5750 5748 5746 5744 5742 5740 5738 5735 5733 5730 5728 5725 5722 5718
5750 5749 5748 5749 5750 5749 5750 5750 5750 5750 5751 5752 5753 5753 5753 5754 5755 5756 5757 5757 5757 5757 5757 5757 5756 5755 5754 5753 5752 5750 5749 5747 5745 5744 5742 5740 5737 5735 5733 5730 5727 5724 5721 5718